Weather History for Wahoo, NE

Change the Weather History Date:

Saturday, February 15, 2014

  Actual Average Record
Temperature  
Mean Temperature 38 °F -  
Max Temperature 59 °F 35 °F 59 °F (1984)
Min Temperature 18 °F 16 °F -1 °F (1970)
Degree Days  
Heating Degree Days 26    
Moisture  
Dew Point 21 °F    
Average Humidity 61    
Maximum Humidity 82    
Minimum Humidity 21    
Precipitation  
Precipitation 0.00 in - - ()
Sea Level Pressure  
Sea Level Pressure 29.91 in    
Wind  
Wind Speed 12 mph (SW)    
Max Wind Speed 34 mph    
Max Gust Speed 50 mph    
Visibility 10 miles    
Events      
Averages and records for this station are not official NWS values.
T = Trace of Precipitation, MM = Missing Value Source: NWS Daily Summary

Daily Weather History Graph

Daily Weather History Graph

Search for Another Location

Airport:

Trip Planner

Search our weather history database for the weather conditions in past years. The results will help you decide how hot, cold, wet, or windy it might be!

Date:

Astronomy

Feb. 15, 2014 Rise Set
Actual Time 7:21 AM CST 6:00 PM CST
Civil Twilight 6:52 AM CST 6:28 PM CST
Nautical Twilight 6:20 AM CST 7:01 PM CST
Astronomical Twilight 5:48 AM CST 7:33 PM CST
Moon 7:02 PM CST (2/15) 7:19 AM CST (2/15)
Length of Visible Light 11h 36m
Length of Day
10h 39m
Waxing Gibbous, 99% of the Moon is Illuminated
Feb 15
Waxing Gibbous
Feb 22
Last Quarter
Mar 1
New
Mar 8
First Quarter
Mar 16
Full

Hourly Weather History & Observations

Time (CST) Temp. Windchill Dew Point Humidity Pressure Visibility Wind Dir Wind Speed Gust Speed Precip Events Conditions
12:15 AM 18.5 °F 10.4 °F 11.5 °F 74% 30.03 in 10.0 mi South 5.8 mph - N/A   Clear
12:35 AM 18.9 °F 12.1 °F 11.8 °F 74% 30.03 in 10.0 mi SSE 4.6 mph - N/A   Clear
12:55 AM 18.9 °F 10.8 °F 11.7 °F 74% 30.03 in 10.0 mi South 5.8 mph - N/A   Clear
1:15 AM 19.4 °F 14.3 °F 12.6 °F 75% 30.02 in 10.0 mi SSE 3.5 mph - N/A   Clear
1:35 AM 19.6 °F 11.7 °F 12.4 °F 74% 30.02 in 10.0 mi South 5.8 mph - N/A   Scattered Clouds
1:55 AM 19.9 °F 13.4 °F 12.7 °F 74% 30.02 in 10.0 mi SSE 4.6 mph - N/A   Clear
2:15 AM 20.3 °F 12.5 °F 12.7 °F 73% 30.02 in 10.0 mi SSE 5.8 mph - N/A   Clear
2:35 AM 20.8 °F 10.4 °F 13.1 °F 72% 29.99 in 10.0 mi SSE 9.2 mph - N/A   Scattered Clouds
2:55 AM 21.2 °F 11.7 °F 13.5 °F 72% 29.98 in 10.0 mi South 8.1 mph - N/A   Overcast
3:15 AM 21.7 °F 10.8 °F 13.3 °F 70% 29.96 in 10.0 mi SSE 10.4 mph - N/A   Overcast
3:35 AM 22.1 °F 10.6 °F 13.5 °F 69% 29.94 in 10.0 mi SSE 11.5 mph - N/A   Mostly Cloudy
3:55 AM 22.8 °F 11.5 °F 13.8 °F 68% 29.94 in 10.0 mi SSE 11.5 mph - N/A   Overcast
4:15 AM 23.0 °F 12.4 °F 14.0 °F 68% 29.95 in 10.0 mi SSE 10.4 mph - N/A   Overcast
4:35 AM 23.5 °F 12.4 °F 14.7 °F 69% 29.92 in 10.0 mi SSE 11.5 mph - N/A   Overcast
4:55 AM 24.1 °F 13.1 °F 14.5 °F 67% 29.93 in 10.0 mi SSE 11.5 mph - N/A   Overcast
5:15 AM 23.9 °F 12.9 °F 14.9 °F 69% 29.91 in 10.0 mi SE 11.5 mph - N/A   Overcast
5:35 AM 24.1 °F 12.5 °F 15.3 °F 69% 29.90 in 10.0 mi SSE 12.7 mph - N/A   Overcast
5:55 AM 24.3 °F 11.2 °F 15.6 °F 70% 29.87 in 10.0 mi SE 16.1 mph 19.6 mph N/A   Overcast
6:15 AM 24.6 °F 12.7 °F 15.8 °F 69% 29.90 in 10.0 mi SSE 13.8 mph - N/A   Overcast
6:35 AM 24.8 °F 12.4 °F 16.5 °F 71% 29.88 in 10.0 mi SSE 15.0 mph - N/A   Overcast
6:55 AM 25.3 °F 12.2 °F 16.7 °F 70% 29.87 in 10.0 mi SSE 17.3 mph - N/A   Overcast
7:15 AM 25.7 °F 13.5 °F 17.4 °F 71% 29.84 in 10.0 mi SSE 15.0 mph - N/A   Overcast
7:35 AM 25.7 °F 12.7 °F 17.6 °F 71% 29.85 in 10.0 mi SSE 17.3 mph 20.7 mph N/A   Overcast
7:55 AM 26.1 °F 13.6 °F 18.1 °F 72% 29.85 in 10.0 mi SSE 16.1 mph - N/A   Overcast
8:15 AM 26.2 °F 14.7 °F 18.3 °F 72% 29.85 in 10.0 mi SSE 13.8 mph - N/A   Overcast
8:35 AM 27.0 °F 16.7 °F 18.9 °F 72% 29.88 in 10.0 mi South 11.5 mph - N/A   Overcast
8:55 AM 27.5 °F 19.3 °F 19.2 °F 71% 29.89 in 10.0 mi South 8.1 mph - N/A   Overcast
9:15 AM 28.2 °F 21.0 °F 20.1 °F 72% 29.89 in 7.0 mi SSE 6.9 mph - N/A   Overcast
9:35 AM 28.6 °F 20.7 °F 20.8 °F 73% 29.89 in 10.0 mi SSE 8.1 mph - N/A   Overcast
9:55 AM 29.5 °F 21.1 °F 21.7 °F 73% 29.87 in 7.0 mi SSE 9.2 mph - N/A   Overcast
10:15 AM 31.1 °F 20.1 °F 21.9 °F 69% 29.86 in 10.0 mi South 16.1 mph - N/A   Overcast
10:35 AM 31.8 °F 19.9 °F 21.9 °F 67% 29.83 in 10.0 mi South 19.6 mph 23.0 mph N/A   Overcast
10:55 AM 32.9 °F 23.2 °F 22.6 °F 66% 29.84 in 10.0 mi South 13.8 mph 23.0 mph N/A   Mostly Cloudy
11:15 AM 34.3 °F 25.0 °F 23.4 °F 64% 29.85 in 10.0 mi SSW 13.8 mph 19.6 mph N/A   Mostly Cloudy
11:35 AM 36.9 °F 28.7 °F 24.3 °F 60% 29.84 in 10.0 mi SSW 12.7 mph - N/A   Scattered Clouds
11:55 AM 37.8 °F 29.8 °F 24.8 °F 60% 29.83 in 10.0 mi SSW 12.7 mph - N/A   Clear
12:15 PM 40.5 °F 33.6 °F 25.9 °F 56% 29.81 in 10.0 mi SSW 11.5 mph 18.4 mph N/A   Clear
12:35 PM 42.8 °F 35.8 °F 27.0 °F 54% 29.81 in 10.0 mi SW 13.8 mph 17.3 mph N/A   Clear
12:55 PM 44.8 °F 38.7 °F 28.2 °F 52% 29.80 in 10.0 mi SW 12.7 mph 16.1 mph N/A   Clear
1:15 PM 47.3 °F - 28.8 °F 49% 29.80 in 10.0 mi WSW 8.1 mph - N/A   Clear
1:35 PM 50.2 °F - 29.5 °F 45% 29.79 in 10.0 mi WSW 10.4 mph 16.1 mph N/A   Clear
1:55 PM 52.3 °F - 29.5 °F 42% 29.78 in 10.0 mi WSW 10.4 mph - N/A   Clear
2:15 PM 53.6 °F - 29.3 °F 39% 29.77 in 10.0 mi WSW 10.4 mph - N/A   Clear
2:35 PM 55.2 °F - 28.4 °F 36% 29.76 in 10.0 mi West 15.0 mph - N/A   Clear
2:55 PM 57.2 °F - 27.3 °F 32% 29.76 in 10.0 mi West 17.3 mph 24.2 mph N/A   Clear
3:15 PM 59.0 °F - 21.0 °F 23% 29.76 in 10.0 mi NW 33.4 mph 40.3 mph N/A   Clear
3:35 PM 58.1 °F - 19.8 °F 23% 29.77 in 10.0 mi WNW 31.1 mph 35.7 mph N/A   Clear
3:55 PM 57.7 °F - 18.3 °F 22% 29.77 in 10.0 mi WNW 29.9 mph 38.0 mph N/A   Scattered Clouds
4:15 PM 57.2 °F - 17.6 °F 21% 29.79 in 10.0 mi NW 29.9 mph 38.0 mph N/A   Scattered Clouds
4:35 PM 56.3 °F - 18.0 °F 22% 29.81 in 10.0 mi NW 34.5 mph 42.6 mph N/A   Clear
4:55 PM 54.3 °F - 18.7 °F 25% 29.83 in 10.0 mi NW 33.4 mph 49.5 mph N/A   Clear
5:15 PM 53.2 °F - 20.5 °F 28% 29.85 in 10.0 mi NW 26.5 mph 39.1 mph N/A   Clear
5:35 PM 50.0 °F - 26.2 °F 40% 29.87 in 10.0 mi NNW 21.9 mph 31.1 mph N/A   Clear
5:55 PM 47.7 °F - 26.4 °F 44% 29.89 in 10.0 mi NNW 24.2 mph 34.5 mph N/A   Clear
6:15 PM 46.0 °F 38.5 °F 25.5 °F 45% 29.92 in 10.0 mi NNW 19.6 mph 25.3 mph N/A   Clear
6:35 PM 44.2 °F 35.7 °F 26.1 °F 49% 29.93 in 10.0 mi NNW 21.9 mph 25.3 mph N/A   Clear
6:55 PM 43.0 °F 35.7 °F 26.6 °F 52% 29.95 in 10.0 mi NNW 15.0 mph 26.5 mph N/A   Clear
7:15 PM 41.2 °F 33.7 °F 26.4 °F 56% 29.96 in 10.0 mi North 13.8 mph - N/A   Clear
7:35 PM 39.9 °F 32.5 °F 26.2 °F 58% 29.97 in 10.0 mi NNW 12.7 mph - N/A   Clear
7:55 PM 38.7 °F 30.5 °F 26.4 °F 61% 29.98 in 10.0 mi NNW 13.8 mph - N/A   Clear
8:15 PM 37.4 °F 28.9 °F 26.4 °F 65% 29.99 in 10.0 mi North 13.8 mph - N/A   Clear
8:35 PM 37.9 °F 28.2 °F 27.7 °F 67% 30.00 in 10.0 mi North 18.4 mph 24.2 mph N/A   Clear
8:55 PM 37.2 °F 27.6 °F 28.0 °F 69% 30.00 in 10.0 mi North 17.3 mph - N/A   Clear
9:15 PM 36.7 °F 27.2 °F 27.9 °F 70% 30.01 in 10.0 mi NNW 16.1 mph 25.3 mph N/A   Clear
9:35 PM 35.6 °F 26.2 °F 27.7 °F 73% 30.02 in 10.0 mi North 15.0 mph 26.5 mph N/A   Clear
9:55 PM 34.0 °F 25.0 °F 27.1 °F 76% 30.04 in 10.0 mi North 12.7 mph - N/A   Clear
10:15 PM 33.6 °F 25.0 °F 26.6 °F 75% 30.04 in 10.0 mi North 11.5 mph - N/A   Clear
10:35 PM 32.0 °F 24.2 °F 26.1 °F 79% 30.04 in 10.0 mi North 9.2 mph - N/A   Clear
10:55 PM 30.6 °F 22.4 °F 25.3 °F 81% 30.05 in 10.0 mi NNW 9.2 mph - N/A   Clear
11:15 PM 30.0 °F 25.2 °F 24.3 °F 79% 30.07 in 10.0 mi NNW 4.6 mph - N/A   Clear
11:35 PM 29.1 °F 22.1 °F 24.1 °F 81% 30.07 in 10.0 mi NNW 6.9 mph - N/A   Scattered Clouds
11:55 PM 28.9 °F 22.8 °F 24.1 °F 82% 30.07 in 10.0 mi North 5.8 mph - N/A   Mostly Cloudy